Regional Weather Roundup
Issued by NWS Cleveland, OH

Home | Current Version | Previous Version | Graphics & Text | Print | Product List | Glossary On
Versions: 1 2 3 4 5 6 7 8 9 10 11 12 13 14 15 16 17 18 19 20 21 22 23 24 25 26 27 28 29 30 31 32 33 34 35 36 37 38 39 40 41 42 43 44 45 46 47 48 49 50
361
ASUS41 KCLE 281410
RWRCLE
OHIO REGIONAL WEATHER ROUNDUP
NATIONAL WEATHER SERVICE WILMINGTON, OH
900 AM EST TUE FEB 28 2017

NOTE: "FAIR" INDICATES FEW OR NO CLOUDS BELOW 12,000 FEET WITH NO
SIGNIFICANT WEATHER AND/OR OBSTRUCTIONS TO VISIBILITY.

OHZ001>008-015>018-024>027-034-035-043-044-281500-
   NORTHWEST OHIO

CITY           SKY/WX    TMP DP  RH WIND       PRES   REMARKS
DEFIANCE       CLOUDY    43  41  93 SE7       30.01S FOG
FINDLAY        LGT RAIN  44  39  82 SE10      30.02F
TOLEDO EXPRESS LGT RAIN  42  42 100 SE6       30.03F FOG
TOLEDO EXEC    LGT RAIN  44  42  93 SE12      30.05F
LIMA           CLOUDY    46  44  93 S17       30.01F
$$

OHZ009>014-019>023-028>033-038-089-281500-
   NORTHEAST OHIO

CITY           SKY/WX    TMP DP  RH WIND       PRES   REMARKS
CLE-HOPKINS    PTSUNNY   48  37  65 S10       30.16R
CLE-LAKEFRONT  PTSUNNY   46  37  71 S10       30.15R
CUY CO. ARPT   CLOUDY    46  34  61 S9        30.16R
LORAIN-ELYRIA  PTSUNNY   44  36  73 S13       30.12F
ASHTABULA      FAIR      42  38  85 S7        30.14F
AKRON-CANTON   PTSUNNY   45  37  73 S8        30.16R
WOOSTER        PTSUNNY   42  37  82 E6        30.14F
MANSFIELD      CLOUDY    45  39  79 SE8       30.10F
YOUNGSTOWN     PTSUNNY   45  36  70 SE9       30.15F
$$

OHZ042-051>053-060>062-070>072-077>081-281500-
  SOUTHWEST OHIO

CITY           SKY/WX    TMP DP  RH WIND       PRES   REMARKS
CINC-COVINGTON TSTM      46  45  96 SE15      30.08S FOG
CINC-LUNKEN    TSTM      46  45  96 VRB3      30.12R FOG
HAMILTON       TSTM      48  47  96 VRB3      30.08S FOG
DAYTON         LGT RAIN  45  44  97 SE12      30.03F
WRIGHT-PAT AFB LGT RAIN  45  45 100 SE7       30.04F
DAYTON GENERAL LGT RAIN  47  46  97 S12       30.04F
WILMINGTON     LGT RAIN  46  45  96 S10       30.08F
$$

OHZ036-037-039>041-045>050-054>059-063>069-073>076-082>088-281500-
  CENTRAL AND SOUTHEAST OHIO

CITY           SKY/WX    TMP DP  RH WIND       PRES   REMARKS
COLUMBUS       LGT RAIN  47  40  76 SE14      30.10F
OSU AIRPORT    CLOUDY    46  41  82 SE9       30.09F
BOLTON FIELD   LGT RAIN  43  39  87 SE9G16    30.10F
RICKENBACK AFB LGT RAIN  44  42  93 SE8       30.09F
NEWARK         LGT RAIN  43  39  86 CALM      30.13F
MARION         CLOUDY    45  40  82 S13       30.08F
LANCASTER      CLOUDY    44  39  82 SE10      30.12F
ZANESVILLE     PTSUNNY   44  37  76 S6        30.16F
NEW PHILLY     FAIR      39  37  92 SE5       30.18S
$$




USA.gov is the U.S. government's official web portal to all federal, state and local government web resources and services.